FW0822 Weather Reports


time (UTC)temp
C
wind
direction
speed
KPH
gust
KPH
rain 1hr
cm
rain 24hr
cm
rain mn
cm
humidity
%
barometer
mb
20260507053035 17 218 0.0 0.0 0.03 0.08 0.08 90 1011.9
20260507051535 17 219 0.0 0.0 0.00 0.05 0.05 90 1012.7
20260507050034 18 219 0.0 0.0 0.00 0.05 0.05 89 1012.8
20260507044534 18 219 0.0 0.0 0.03 0.05 0.05 89 1012.8
20260507043133 18 219 0.0 0.0 0.03 0.05 0.05 88 1012.8
20260507041533 18 219 0.0 0.0 0.03 0.05 0.05 88 1012.2
20260507040032 18 220 0.0 0.0 0.03 0.05 0.05 88 1012.7
20260507034535 19 220 0.0 0.0 0.00 0.03 0.03 88 1012.5
20260507033034 19 221 0.0 4.8 0.00 0.03 0.03 87 1014.1
20260507031632 20 213 0.0 0.0 0.03 0.03 0.03 87 1014.0
20260507030031 20 223 0.0 3.2 0.03 0.03 0.03 87 1013.4
20260507024531 20 215 0.0 0.0 0.03 0.03 0.03 87 1013.0
20260507023030 20 219 0.0 0.0 0.03 0.03 0.03 87 1013.1
20260507021629 20 217 0.0 0.0 0.00 0.00 0.00 86 1012.7
20260507020044 20 223 0.0 0.0 0.00 0.00 0.00 85 1012.5
20260507014528 20 223 0.0 0.0 0.00 0.00 0.00 83 1012.0
20260507013027 21 224 0.0 0.0 0.00 0.00 0.00 82 1011.9
20260507011539 21 223 0.0 0.0 0.00 0.00 0.00 81 1012.3
20260507010027 21 223 0.0 0.0 0.00 0.00 0.00 81 1012.7
20260507004524 21 223 0.0 0.0 0.00 0.00 0.00 80 1012.3
20260507003023 21 224 0.0 0.0 0.00 0.00 0.00 79 1012.3
20260507001624 21 223 0.0 0.0 0.00 0.00 0.00 78 1012.1
20260507000025 21 223 0.0 0.0 0.00 0.00 0.00 78 1012.2
20260506234524 21 223 0.0 0.0 0.00 0.00 0.00 77 1012.0
20260506233025 21 223 0.0 0.0 0.00 0.00 0.00 77 1012.1
20260506231624 21 230 0.0 0.0 0.00 0.00 0.00 76 1012.0
20260506230033 22 218 0.0 0.0 0.00 0.00 0.00 76 1012.5
20260506224524 22 206 0.0 1.6 0.00 0.00 0.00 76 1012.5
20260506223029 22 216 0.0 0.0 0.00 0.00 0.00 75 1012.5
20260506221624 22 208 0.0 1.6 0.00 0.00 0.00 75 1012.7
20260506220022 22 256 0.0 3.2 0.00 0.00 0.00 75 1012.6
20260506214521 22 216 0.0 6.4 0.00 0.00 0.00 75 1012.1
20260506213020 22 252 0.0 6.4 0.00 0.00 0.00 74 1011.8
20260506211618 21 239 0.0 12.9 0.00 0.00 0.00 75 1012.0
20260506210038 21 226 0.0 6.4 0.00 0.00 0.00 75 1012.2
20260506204517 21 231 0.0 0.0 0.00 0.00 0.00 77 1012.4
20260506203015 21 215 0.0 8.0 0.00 0.00 0.00 78 1012.6
20260506200011 20 233 0.0 4.8 0.00 0.00 0.00 79 1012.4
20260506194510 20 200 0.0 11.3 0.00 0.00 0.00 78 1012.6
20260506193016 20 246 0.0 3.2 0.00 0.00 0.00 79 1012.4
20260506191608 20 241 0.0 8.0 0.00 0.00 0.00 80 1012.8
20260506190012 20 221 0.0 1.6 0.00 0.00 0.00 80 1013.0
20260506184507 20 197 0.0 0.0 0.00 0.00 0.00 80 1012.5
20260506183006 20 217 0.0 0.0 0.00 0.00 0.00 79 1012.7
20260506181605 20 240 0.0 0.0 0.00 0.00 0.00 77 1013.6
20260506180004 20 232 0.0 1.6 0.00 0.00 0.00 76 1014.1
20260506174502 20 229 0.0 0.0 0.00 0.00 0.00 77 1014.6
20260506173109 20 224 0.0 0.0 0.00 0.00 0.00 77 1014.6
20260506171559 19 226 0.0 0.0 0.00 0.00 0.00 77 1014.5
20260506170109 19 234 0.0 0.0 0.00 0.00 0.00 77 1014.5
20260506164624 19 211 0.0 3.2 0.00 0.00 0.00 76 1014.7
20260506163104 19 218 0.0 0.0 0.00 0.00 0.00 76 1014.6
20260506161556 18 232 0.0 0.0 0.00 0.00 0.00 76 1014.7
20260506160105 18 246 0.0 0.0 0.00 0.00 0.00 76 1014.6
20260506154555 18 235 0.0 0.0 0.00 0.00 0.00 76 1014.1
20260506153052 18 208 0.0 0.0 0.00 0.00 0.00 75 1014.3
20260506151554 18 245 0.0 0.0 0.00 0.00 0.00 75 1014.4
20260506150100 18 228 0.0 3.2 0.00 0.00 0.00 75 1014.3
20260506144550 18 223 0.0 3.2 0.00 0.00 0.00 75 1014.4
20260506143048 18 200 0.0 1.6 0.00 0.00 0.00 75 1014.1
20260506141546 17 231 0.0 0.0 0.00 0.00 0.00 75 1014.1
20260506140046 17 215 0.0 0.0 0.00 0.00 0.00 76 1014.0
20260506134543 17 238 0.0 1.6 0.00 0.00 0.00 76 1014.1
20260506133056 17 237 0.0 0.0 0.00 0.00 0.00 77 1014.0
20260506131545 17 234 0.0 0.0 0.00 0.00 0.00 77 1013.9
20260506130043 16 236 0.0 0.0 0.00 0.00 0.00 77 1014.2
20260506124542 16 216 0.0 1.6 0.00 0.00 0.00 78 1014.3
20260506123043 16 228 0.0 1.6 0.00 0.00 0.00 78 1014.6
20260506121545 16 214 0.0 0.0 0.00 0.00 0.00 79 1014.3
20260506120056 16 215 0.0 6.4 0.00 0.00 0.00 79 1014.3
20260506114540 16 234 0.0 1.6 0.00 0.00 0.00 78 1014.1
20260506113040 16 244 0.0 0.0 0.00 0.00 0.00 78 1013.8
20260506111544 16 211 0.0 0.0 0.00 0.00 0.00 77 1013.9
20260506110039 16 232 0.0 0.0 0.00 0.00 0.00 77 1013.7
20260506104548 16 232 0.0 6.4 0.00 0.00 0.00 76 1013.4
20260506103044 16 255 0.0 1.6 0.00 0.00 0.00 76 1013.5
20260506101534 16 229 0.0 0.0 0.00 0.00 0.00 75 1013.3
20260506100032 16 246 0.0 0.0 0.00 0.00 0.00 75 1013.3
20260506094531 16 219 0.0 8.0 0.00 0.00 0.00 75 1013.5
20260506093031 17 229 0.0 9.7 0.00 0.00 0.00 75 1013.3
20260506091528 17 269 0.0 0.0 0.00 0.00 0.00 74 1013.6
20260506090027 17 257 0.0 3.2 0.00 0.00 0.00 74 1013.9
20260506084600 17 250 0.0 3.2 0.00 0.00 0.00 73 1013.9
20260506083026 17 233 0.0 1.6 0.00 0.00 0.00 73 1014.0
20260506081535 17 242 0.0 1.6 0.00 0.00 0.00 73 1014.0
20260506073022 17 260 0.0 0.0 0.00 0.00 0.00 73 1013.9
20260506071520 17 244 0.0 1.6 0.00 0.00 0.00 72 1014.0
20260506061518 18 241 0.0 1.6 0.00 0.00 0.00 70 1014.5